Location: Barcelona
(41.3830°N, 2.1830°E)
Time: 18:23:34
(UTC+01:00)

ISS - Pass Details

Date: 19 January 2020
Orbit: 415 x 422 km, 51.6° (Epoch: 23 January)

Event Time Altitude Azimuth Distance (km) Brightness Sun altitude
Rises 19:06:11 0° 197° (SSW) 2,354 0.5 -14.0°
Reaches altitude 10° 19:08:42 10° 178° (S) 1,494 -0.8 -14.5°
Maximum altitude 19:11:05 18° 132° (SE) 1,095 -2.0 -14.9°
Enters shadow 19:11:14 18° 128° (SE) 1,097 -2.0 -15.0°
